Time,TemperatureF,DewpointF,PressureIn,WindDirection,WindDirectionDegrees,WindSpeedMPH,WindSpeedGustMPH,Humidity,HourlyPrecipIn,Conditions,Clouds,dailyrainin,SoftwareType,DateUTC
2015-04-01 00:02:00,38.7,33.7,24.67,North,360,0.0,0.0,82,0.00,,SKC,0.00,VWS V14.01,2015-04-01 04:02:00,
2015-04-01 00:07:00,38.6,33.6,24.67,North,360,0.0,0.0,82,0.00,,SKC,0.00,VWS V14.01,2015-04-01 04:07:00,
2015-04-01 00:12:00,38.6,33.9,24.67,North,360,0.0,0.0,83,0.00,,SKC,0.00,VWS V14.01,2015-04-01 04:12:00,
2015-04-01 00:17:00,38.4,33.7,24.67,North,360,0.0,0.0,83,0.00,,SKC,0.00,VWS V14.01,2015-04-01 04:17:00,
2015-04-01 00:22:00,38.3,33.6,24.67,North,360,0.0,0.0,83,0.00,,SKC,0.00,VWS V14.01,2015-04-01 04:22:00,
2015-04-01 00:27:00,38.2,33.8,24.67,North,360,0.0,0.0,84,0.00,,SKC,0.00,VWS V14.01,2015-04-01 04:27:00,
2015-04-01 00:32:00,38.3,33.9,24.67,North,360,0.0,0.0,84,0.00,,SKC,0.00,VWS V14.01,2015-04-01 04:32:00,
2015-04-01 00:37:00,38.1,33.7,24.67,North,360,0.0,0.0,84,0.00,,SKC,0.00,VWS V14.01,2015-04-01 04:37:00,
2015-04-01 00:42:00,37.9,33.5,24.67,North,360,0.0,0.0,84,0.00,,SKC,0.00,VWS V14.01,2015-04-01 04:42:00,
2015-04-01 00:47:00,37.8,33.4,24.67,North,360,0.0,0.0,84,0.00,,SKC,0.00,VWS V14.01,2015-04-01 04:47:00,
2015-04-01 00:52:00,37.7,33.6,24.67,North,360,0.0,0.0,85,0.00,,SKC,0.00,VWS V14.01,2015-04-01 04:52:00,
2015-04-01 00:57:00,37.5,33.4,24.67,North,360,0.0,0.0,85,0.00,,SKC,0.00,VWS V14.01,2015-04-01 04:57:00,
2015-04-01 01:02:00,37.4,33.3,24.67,North,360,0.0,0.0,85,0.00,,SKC,0.00,VWS V14.01,2015-04-01 05:02:00,
2015-04-01 01:07:00,37.3,33.2,24.67,North,360,0.0,0.0,85,0.00,,SKC,0.00,VWS V14.01,2015-04-01 05:07:00,
2015-04-01 01:12:00,37.1,33.0,24.67,North,360,0.0,0.0,85,0.00,,SKC,0.00,VWS V14.01,2015-04-01 05:12:00,
2015-04-01 01:17:00,37.0,33.2,24.67,North,360,0.0,0.0,86,0.00,,SKC,0.00,VWS V14.01,2015-04-01 05:17:00,
2015-04-01 01:22:00,36.8,33.0,24.67,North,360,0.0,0.0,86,0.00,,SKC,0.00,VWS V14.01,2015-04-01 05:22:00,
2015-04-01 01:27:00,36.7,32.9,24.67,North,360,0.0,0.0,86,0.00,,SKC,0.00,VWS V14.01,2015-04-01 05:27:00,
2015-04-01 01:32:00,36.6,32.8,24.67,North,360,0.0,0.0,86,0.00,,SKC,0.00,VWS V14.01,2015-04-01 05:32:00,
2015-04-01 01:37:00,36.4,32.6,24.67,North,360,0.0,0.0,86,0.00,,SKC,0.00,VWS V14.01,2015-04-01 05:37:00,
2015-04-01 01:42:00,36.4,32.9,24.67,North,360,0.0,0.0,87,0.00,,SKC,0.00,VWS V14.01,2015-04-01 05:42:00,
2015-04-01 01:47:00,36.5,33.3,24.67,North,360,0.0,0.0,88,0.00,,SKC,0.00,VWS V14.01,2015-04-01 05:47:00,
2015-04-01 01:52:00,36.9,33.7,24.67,North,360,0.0,0.0,88,0.00,,SKC,0.00,VWS V14.01,2015-04-01 05:52:00,
2015-04-01 01:57:00,37.2,34.0,24.67,North,360,0.0,0.0,88,0.00,,SKC,0.00,VWS V14.01,2015-04-01 05:57:00,
2015-04-01 02:02:00,37.3,34.1,24.67,North,360,0.0,0.0,88,0.00,,SKC,0.00,VWS V14.01,2015-04-01 06:02:00,
2015-04-01 02:07:00,37.2,33.7,24.67,North,360,0.0,0.0,87,0.00,,SKC,0.00,VWS V14.01,2015-04-01 06:07:00,
2015-04-01 02:12:00,37.2,33.7,24.67,North,360,0.0,0.0,87,0.00,,SKC,0.00,VWS V14.01,2015-04-01 06:12:00,
2015-04-01 02:17:00,37.4,34.2,24.67,North,360,0.0,0.0,88,0.00,,SKC,0.00,VWS V14.01,2015-04-01 06:17:00,
2015-04-01 02:22:00,37.5,34.3,24.67,North,360,0.0,0.0,88,0.00,,SKC,0.00,VWS V14.01,2015-04-01 06:22:00,
2015-04-01 02:26:00,37.4,33.9,24.67,North,360,0.0,0.0,87,0.00,,SKC,0.00,VWS V14.01,2015-04-01 06:26:00,
2015-04-01 02:31:00,37.3,34.1,24.67,North,360,0.0,0.0,88,0.00,,SKC,0.00,VWS V14.01,2015-04-01 06:31:00,
2015-04-01 02:36:00,37.5,34.3,24.67,North,360,0.0,0.0,88,0.00,,SKC,0.00,VWS V14.01,2015-04-01 06:36:00,
2015-04-01 02:41:00,37.7,34.5,24.67,North,360,0.0,0.0,88,0.00,,SKC,0.00,VWS V14.01,2015-04-01 06:41:00,
2015-04-01 02:46:00,37.8,34.6,24.67,North,360,2.0,2.0,88,0.00,,SKC,0.00,VWS V14.01,2015-04-01 06:46:00,
2015-04-01 02:51:00,37.8,34.3,24.67,North,360,1.0,2.0,87,0.00,,SKC,0.00,VWS V14.01,2015-04-01 06:51:00,
2015-04-01 02:56:00,37.9,34.7,24.67,North,360,1.0,4.0,88,0.00,,SKC,0.00,VWS V14.01,2015-04-01 06:56:00,
2015-04-01 03:01:00,38.0,34.5,24.67,North,360,1.0,4.0,87,0.00,,SKC,0.00,VWS V14.01,2015-04-01 07:01:00,
2015-04-01 03:06:00,38.0,34.5,24.67,North,360,3.0,3.0,87,0.00,,SKC,0.00,VWS V14.01,2015-04-01 07:06:00,
2015-04-01 03:11:00,38.1,34.6,24.67,North,360,1.0,3.0,87,0.00,,SKC,0.00,VWS V14.01,2015-04-01 07:11:00,
2015-04-01 03:16:00,38.0,34.5,24.67,North,360,3.0,5.0,87,0.00,,SKC,0.00,VWS V14.01,2015-04-01 07:16:00,
2015-04-01 03:21:00,38.0,34.5,24.67,North,360,0.0,0.0,87,0.00,,SKC,0.00,VWS V14.01,2015-04-01 07:21:00,
2015-04-01 03:26:00,38.0,34.5,24.67,North,360,1.0,6.0,87,0.00,,SKC,0.00,VWS V14.01,2015-04-01 07:26:00,
2015-04-01 03:31:00,38.0,34.5,24.67,North,360,3.0,4.0,87,0.00,,SKC,0.00,VWS V14.01,2015-04-01 07:31:00,
2015-04-01 03:36:00,38.1,34.6,24.67,North,360,4.0,4.0,87,0.00,,SKC,0.00,VWS V14.01,2015-04-01 07:36:00,
2015-04-01 03:41:00,38.0,34.5,24.67,North,360,3.0,4.0,87,0.00,,SKC,0.00,VWS V14.01,2015-04-01 07:41:00,
2015-04-01 03:46:00,38.1,34.6,24.67,North,360,3.0,4.0,87,0.00,,SKC,0.00,VWS V14.01,2015-04-01 07:46:00,
2015-04-01 03:51:00,38.1,34.6,24.67,North,360,2.0,4.0,87,0.00,,SKC,0.00,VWS V14.01,2015-04-01 07:51:00,
2015-04-01 03:56:00,38.1,34.6,24.67,North,360,3.0,6.0,87,0.00,,SKC,0.00,VWS V14.01,2015-04-01 07:56:00,
2015-04-01 04:01:00,38.1,34.6,24.67,North,360,2.0,5.0,87,0.00,,SKC,0.00,VWS V14.01,2015-04-01 08:01:00,
2015-04-01 04:06:00,38.1,34.6,24.67,North,360,1.0,6.0,87,0.00,,SKC,0.00,VWS V14.01,2015-04-01 08:06:00,
2015-04-01 04:11:00,38.1,36.0,24.67,North,360,1.0,4.0,92,0.00,,SKC,0.00,VWS V14.01,2015-04-01 08:11:00,
2015-04-01 04:16:00,38.1,34.6,24.67,North,360,5.0,5.0,87,0.00,,SKC,0.00,VWS V14.01,2015-04-01 08:16:00,
2015-04-01 04:21:00,38.2,34.7,24.67,North,360,1.0,5.0,87,0.00,,SKC,0.00,VWS V14.01,2015-04-01 08:21:00,
2015-04-01 04:26:00,38.2,34.7,24.67,North,360,0.0,3.0,87,0.00,,SKC,0.00,VWS V14.01,2015-04-01 08:26:00,
2015-04-01 04:31:00,38.2,34.7,24.67,North,360,4.0,6.0,87,0.00,,SKC,0.00,VWS V14.01,2015-04-01 08:31:00,
2015-04-01 04:36:00,38.2,34.7,24.67,North,360,0.0,5.0,87,0.00,,SKC,0.00,VWS V14.01,2015-04-01 08:36:00,
2015-04-01 04:41:00,38.1,34.6,24.67,North,360,0.0,0.0,87,0.00,,SKC,0.00,VWS V14.01,2015-04-01 08:41:00,
2015-04-01 04:46:00,38.0,34.5,24.67,North,360,0.0,0.0,87,0.00,,SKC,0.00,VWS V14.01,2015-04-01 08:46:00,
2015-04-01 04:51:00,37.9,34.4,24.67,North,360,0.0,3.0,87,0.00,,SKC,0.00,VWS V14.01,2015-04-01 08:51:00,
2015-04-01 04:56:00,37.8,34.3,24.67,North,360,0.0,0.0,87,0.00,,SKC,0.00,VWS V14.01,2015-04-01 08:56:00,
2015-04-01 05:01:00,37.7,34.2,24.67,North,360,0.0,1.0,87,0.00,,SKC,0.00,VWS V14.01,2015-04-01 09:01:00,
2015-04-01 05:06:00,37.6,34.1,24.67,North,360,0.0,2.0,87,0.00,,SKC,0.00,VWS V14.01,2015-04-01 09:06:00,
2015-04-01 05:11:00,37.5,34.0,24.67,North,360,0.0,0.0,87,0.00,,SKC,0.00,VWS V14.01,2015-04-01 09:11:00,
2015-04-01 05:16:00,37.5,34.0,24.67,North,360,3.0,5.0,87,0.00,,SKC,0.00,VWS V14.01,2015-04-01 09:16:00,
2015-04-01 05:21:00,37.4,33.9,24.67,North,360,1.0,4.0,87,0.00,,SKC,0.00,VWS V14.01,2015-04-01 09:21:00,
2015-04-01 05:26:00,37.4,34.2,24.67,North,360,0.0,3.0,88,0.00,,SKC,0.00,VWS V14.01,2015-04-01 09:26:00,
2015-04-01 05:31:00,37.3,34.1,24.67,North,360,0.0,0.0,88,0.00,,SKC,0.00,VWS V14.01,2015-04-01 09:31:00,
2015-04-01 05:36:00,37.2,34.0,24.67,North,360,0.0,0.0,88,0.00,,SKC,0.00,VWS V14.01,2015-04-01 09:36:00,
2015-04-01 05:41:00,37.1,33.9,24.67,North,360,0.0,0.0,88,0.00,,SKC,0.00,VWS V14.01,2015-04-01 09:41:00,
2015-04-01 05:46:00,37.1,33.9,24.67,North,360,0.0,0.0,88,0.00,,SKC,0.00,VWS V14.01,2015-04-01 09:46:00,
2015-04-01 05:51:00,37.0,33.8,24.67,North,360,0.0,0.0,88,0.00,,SKC,0.00,VWS V14.01,2015-04-01 09:51:00,
2015-04-01 05:56:00,36.9,33.7,24.67,North,360,0.0,0.0,88,0.00,,SKC,0.00,VWS V14.01,2015-04-01 09:56:00,
2015-04-01 06:01:00,36.8,33.6,24.67,North,360,0.0,0.0,88,0.00,,SKC,0.00,VWS V14.01,2015-04-01 10:01:00,
2015-04-01 06:06:00,36.8,33.6,24.67,North,360,4.0,4.0,88,0.00,,SKC,0.00,VWS V14.01,2015-04-01 10:06:00,
2015-04-01 06:11:00,36.9,34.0,24.67,North,360,2.0,5.0,89,0.00,,SKC,0.00,VWS V14.01,2015-04-01 10:11:00,
2015-04-01 06:16:00,36.9,33.7,24.67,North,360,0.0,3.0,88,0.00,,SKC,0.00,VWS V14.01,2015-04-01 10:16:00,
2015-04-01 06:21:00,36.9,33.7,24.67,North,360,2.0,4.0,88,0.00,,SKC,0.00,VWS V14.01,2015-04-01 10:21:00,
2015-04-01 06:26:00,36.9,33.7,24.67,North,360,2.0,3.0,88,0.00,,SKC,0.00,VWS V14.01,2015-04-01 10:26:00,
2015-04-01 06:31:00,36.9,33.7,24.67,North,360,0.0,0.0,88,0.00,,SKC,0.00,VWS V14.01,2015-04-01 10:31:00,
2015-04-01 06:36:00,36.9,33.7,24.67,North,360,0.0,0.0,88,0.00,,SKC,0.00,VWS V14.01,2015-04-01 10:36:00,
2015-04-01 06:41:00,36.7,33.5,24.67,North,360,0.0,0.0,88,0.00,,SKC,0.00,VWS V14.01,2015-04-01 10:41:00,
2015-04-01 06:46:00,36.6,33.4,24.67,North,360,0.0,0.0,88,0.00,,SKC,0.00,VWS V14.01,2015-04-01 10:46:00,
2015-04-01 06:51:00,36.6,33.7,24.67,North,360,2.0,4.0,89,0.00,,SKC,0.00,VWS V14.01,2015-04-01 10:51:00,
2015-04-01 06:56:00,36.5,33.3,24.67,North,360,1.0,3.0,88,0.00,,SKC,0.00,VWS V14.01,2015-04-01 10:56:00,
2015-04-01 07:01:00,36.4,33.2,24.67,North,360,0.0,0.0,88,0.00,,SKC,0.00,VWS V14.01,2015-04-01 11:01:00,
2015-04-01 07:06:00,36.3,33.4,24.67,North,360,3.0,5.0,89,0.00,,SKC,0.00,VWS V14.01,2015-04-01 11:06:00,
2015-04-01 07:11:00,36.3,33.4,24.67,North,360,0.0,2.0,89,0.00,,SKC,0.00,VWS V14.01,2015-04-01 11:11:00,
2015-04-01 07:16:00,36.2,33.3,24.67,North,360,0.0,0.0,89,0.00,,SKC,0.00,VWS V14.01,2015-04-01 11:16:00,
2015-04-01 07:21:00,36.0,33.1,24.67,North,360,0.0,0.0,89,0.00,,SKC,0.00,VWS V14.01,2015-04-01 11:21:00,
2015-04-01 07:26:00,35.9,33.0,24.67,North,360,0.0,0.0,89,0.00,,SKC,0.00,VWS V14.01,2015-04-01 11:26:00,
2015-04-01 07:31:00,35.9,33.0,24.67,North,360,0.0,3.0,89,0.00,,SKC,0.00,VWS V14.01,2015-04-01 11:31:00,
2015-04-01 07:36:00,35.9,33.0,24.67,North,360,0.0,3.0,89,0.00,,SKC,0.00,VWS V14.01,2015-04-01 11:36:00,
2015-04-01 07:41:00,35.9,33.0,24.67,North,360,0.0,2.0,89,0.00,,SKC,0.00,VWS V14.01,2015-04-01 11:41:00,